{"data":{"norad_id":64349,"epoch":"2026-09-20T09:46:07.842144Z","epoch_age_seconds":143165,"freshness":"FRESH","line1":"1 64349U 25126F   26263.40703521  .00014968  00000+0  52396-3 0  9998","line2":"2 64349  70.0009 261.3117 0003476 275.3976  84.6802 15.29587695 69903","mean_motion":15.29587695,"eccentricity":0.0003476,"inclination_deg":70.0009,"raan_deg":261.3117,"arg_perigee_deg":275.3976,"mean_anomaly_deg":84.6802,"bstar":0.00052396,"rev_number":6990,"period_min":94.143016755898,"perigee_km":474.66105074745,"apogee_km":479.42677251722,"semimajor_km":6855.1809116323,"source":"CELESTRAK","updated_at":"2026-09-21T09:00:35.316709Z"}}